Regional Weather Roundup
Issued by NWS

Home | Current Version | Previous Version | Graphics & Text | Print | Product List | Glossary On
Versions: 1 2 3 4 5 6 7 8 9 10 11 12 13 14 15 16 17 18 19 20 21 22 23 24 25 26 27 28 29 30 31 32 33 34 35 36 37 38 39 40 41 42 43 44 45 46 47 48 49 50
000
ASUS43 KMKX 280210
RWRWI

WISCONSIN REGIONAL WEATHER ROUNDUP
NATIONAL WEATHER SERVICE MILWAUKEE/SULLIVAN WI
900 PM CDT FRI MAR 27 2015

NOTE: "FAIR" INDICATES FEW OR NO CLOUDS BELOW 12,000 FEET WITH NO
SIGNIFICANT WEATHER AND/OR OBSTRUCTIONS TO VISIBILITY.

WIZ001-002-006>008-014>016-023>028-280300-
NORTHWEST WISCONSIN

CITY           SKY/WX    TMP DP  RH WIND       PRES   REMARKS
SUPERIOR ARPT  MOCLDY    26  13  59 CALM      30.18S
ASHLAND        CLEAR     18   9  68 CALM      30.20S
HAYWARD        PTCLDY    25  10  53 N7        30.15R WCI  17
SIREN          PTCLDY    26   2  35 CALM      30.16R
CUMBERLAND     PTCLDY    27  18  69 CALM      30.14R
RICE LAKE      PTCLDY    25  10  54 CALM      30.16S
CHETEK         PTCLDY    25  10  54 E5        30.16R WCI  19
LADYSMITH      CLEAR     28  10  47 CALM      30.16R
EAU CLAIRE     CLEAR     27   6  41 SE5       30.16R WCI  22
MENOMONIE      PTCLDY    29  11  47 S7        30.17R WCI  22
NEW RICHMOND   PTCLDY    28  12  51 SW5       30.16S WCI  22
OSCEOLA        MOCLDY    28  12  52 CALM      30.19R
$$

WIZ003>005-009-010-017-018-280300-
NORTH CENTRAL WISCONSIN

CITY           SKY/WX    TMP DP  RH WIND       PRES   REMARKS
MANITOWISH WTR CLEAR     22   5  49 NE3       30.14R
ARBOR VITAE    CLEAR     24   1  36 NE6       30.13R WCI  17
WOODRUFF       CLEAR     24   1  36 NE6       30.13R WCI  17
RHINELANDER    CLEAR     21   1  41 CALM      30.13S
EAGLE RIVER    CLEAR     21  -2  36 NE3       30.13S
LAND O LAKES   CLEAR     18   6  58 N3        30.15R
PHILLIPS       PTCLDY    24   8  49 NE5       30.12S WCI  19
TOMAHAWK       CLEAR     20   3  47 CALM      30.14R
MEDFORD        CLEAR     25  11  55 SW3       30.13R
MERRILL        CLEAR     23   8  53 CALM      30.15R
$$

WIZ029-030-035-036-043>047-280300-
CENTRAL WISCONSIN

CITY           SKY/WX    TMP DP  RH WIND       PRES   REMARKS
WAUSAU         CLEAR     26   7  44 CALM      30.14R
MOSINEE        NOT AVBL
MARSHFIELD     CLEAR     25  11  55 CALM      30.16R
STEVENS POINT  CLEAR     22   4  45 CALM      30.17R
WAUPACA        CLEAR     27   7  44 CALM      30.18S
WAUTOMA        CLEAR     23   9  55 CALM      30.19R
WISC RAPIDS    CLEAR     23   9  55 CALM      30.18R
CAMP DOUGLAS   CLEAR     24   9  53 NE2       30.17R
$$

WIZ011>013-019>022-031-037>040-048>050-280300-
NORTHEAST WISCONSIN

CITY           SKY/WX    TMP DP  RH WIND       PRES   REMARKS
ANTIGO         CLEAR     20  10  64 CALM      30.14S
SHAWANO        CLEAR     23  11  61 CALM      30.20R
OCONTO         CLEAR     21   6  54 CALM      30.22R
STURGEON BAY   CLEAR     21   3  45 NE3       30.23S
GREEN BAY      CLEAR     23  11  60 NE6       30.20S WCI  16
MANITOWOC      CLEAR     22  15  75 CALM      30.22R
APPLETON       CLEAR     25   5  42 VRB5      30.19R WCI  19
CLINTONVILLE   CLEAR     27  10  50 E7        30.18S WCI  19
OSHKOSH        CLEAR     23   9  55 CALM      30.19R
$$

WIZ032>034-041-042-053>061-280300-
SOUTHWEST WISCONSIN

CITY           SKY/WX    TMP DP  RH WIND       PRES   REMARKS
LA CROSSE      CLEAR     28  13  53 NW7       30.18R WCI  21
SPARTA         CLEAR     23   9  53 CALM      30.19R
VIROQUA        CLEAR     27  10  49 W5        30.16R WCI  22
BOSCOBEL       CLEAR     27  10  49 CALM      30.19R
PRAIRIE DU CHI CLEAR     28  10  45 CALM      30.21R
PLATTEVILLE    CLEAR     27  10  49 SW5       30.17R WCI  21
$$

WIZ056-057-062-063-064-067-068-280300-
SOUTH CENTRAL WISCONSIN

CITY           SKY/WX    TMP DP  RH WIND       PRES   REMARKS
REEDSBURG      CLEAR     26   5  40 CALM      30.17R
BARABOO/DELLS  CLEAR     25   6  45 CALM      30.17R
LONE ROCK      CLEAR     27  13  55 CALM      30.18R
MINERAL POINT  CLEAR     28  10  47 W3        30.16R
MADISON        CLEAR     24   7  48 E3        30.18R
MIDDLETON      CLEAR     29   8  40 E6        30.18R WCI  23
WATERTOWN      CLEAR     22   8  55 E3        30.18R
MONROE         CLEAR     28  10  47 NE5       30.16R WCI  23
JANESVILLE     CLEAR     25  14  63 E7        30.18R WCI  17
$$

WIZ051-052-058>065-066-070>072-280300-
SOUTHEAST WISCONSIN

CITY           SKY/WX    TMP DP  RH WIND       PRES   REMARKS
MILWAUKEE      PTCLDY    24  12  60 N7        30.20S WCI  16
WAUKESHA       CLEAR     19  10  68 NE10      30.20R WCI   8
MILWAUKEE/TIMM CLEAR     21  10  63 N3        30.21R
RACINE         CLEAR     24  12  60 NE9       30.22R WCI  14
BURLINGTON     CLEAR     20  12  71 E6        30.20R WCI  13
KENOSHA        CLEAR     21  13  71 NE6       30.20R WCI  13
FOND DU LAC    CLEAR     21  10  62 E6        30.19R WCI  13
SHEBOYGAN      CLEAR     21  13  71 CALM      30.20S
WEST BEND      CLEAR     21  10  63 CALM      30.19S
JUNEAU         CLEAR     23   7  50 E3        30.19S
$$

LSZ147-162-280300-
LAKE SUPERIOR

STATION/POSITION TIME  TEMP    WIND        PRES    WAVE
                       AIR SEA DIR/SP/G            HT/PER
                 (UTC) (F)     (DEG/KT/KT) (MB)    (FT/S)
DEVILS ISLAND    0200   22     140/  6/  8 1024.1R
PORT WING        0140   26     140/  2/  6 1022.0F
$$

LMZ867-665-643>646-280300-
LAKE MICHIGAN

STATION/POSITION TIME  TEMP    WIND        PRES    WAVE
                       AIR SEA DIR/SP/G            HT/PER
                 (UTC) (F)     (DEG/KT/KT) (MB)    (FT/S)
NORTHPORT PIER   0117   21      40/ 11/ 15 1023.4R
SISTER BAY       0117   19      60/  4/  7   N/A
KEWAUNEE LAKESHO 0100           70/  6/ 10 1022.0R
SHEBOYGAN LAKESH 0200   25      40/ 11/ 13 1024.3R
PORT WASHINGTON  0140   24     340/  3/  5 1023.7R
MILWAUKEE LAKESH 0100   26      20/ 11/ 13   N/A
KENOSHA   LAKESH 0200   26      30/ 16/ 22 1022.7R
$$

TC  - TEMPERATURE IN CELSIUS
VSB - VISIBILITY IN STATUTE MILES
WCI - WIND CHILL INDEX
HX  - HEAT INDEX



USA.gov is the U.S. government's official web portal to all federal, state and local government web resources and services.